Change the Weather History Date:

Wednesday, November 21, 2012

  Actual Average (KAUN) Record (KAUN)
Temperature  
Mean Temperature 53 °F -  
Max Temperature 62 °F 58 °F 75 °F (2002)
Min Temperature 44 °F 40 °F 30 °F (1979)
Degree Days  
Heating Degree Days 12    
Growing Degree Days 3 (Base 50)    
Moisture  
Dew Point 52 °F    
Average Humidity 88    
Maximum Humidity 100    
Minimum Humidity 68    
Precipitation  
Precipitation 0.42 in - - ()
Sea Level Pressure  
Sea Level Pressure 30.13 in    
Wind  
Wind Speed 10 mph (SE)    
Max Wind Speed 17 mph    
Max Gust Speed 21 mph    
Visibility 8 miles    
Events      
Averages and records for this station are not official NWS values.
T = Trace of Precipitation, MM = Missing Value Source: NWS Daily Summary

Daily Weather History Graph

Daily Weather History Graph

Search for Another Location

Airport or City:

Trip Planner

Search our weather history database for the weather conditions in past years. The results will help you decide how hot, cold, wet, or windy it might be!

Date:

Astronomy

Nov. 21, 2012 Rise Set
Actual Time 6:55 AM PST 4:47 PM PST
Civil Twilight 6:26 AM PST 5:16 PM PST
Nautical Twilight 5:53 AM PST 5:48 PM PST
Astronomical Twilight 5:22 AM PST 6:20 PM PST
Moon 1:03 PM PST (11/21) 12:23 AM PST (11/21)
Length of Visible Light 10h 49m
Length of Day
9h 51m
Waxing Gibbous, 63% of the Moon is Illuminated
Nov 21
Waxing Gibbous
Nov 28
Full
Dec 6
Last Quarter
Dec 13
New
Dec 19
First Quarter

Hourly Weather History & Observations

Time (PST) Temp. Windchill Dew Point Humidity Pressure Visibility Wind Dir Wind Speed Gust Speed Precip Events Conditions
12:15 AM 55.4 °F - 53.6 °F 94% 30.07 in 4.0 mi SE 12.7 mph - 0.02 in   Overcast
12:35 AM 55.4 °F - 53.6 °F 94% 30.06 in 5.0 mi SE 11.5 mph - 0.03 in   Overcast
12:55 AM 55.4 °F - 53.6 °F 94% 30.06 in 5.0 mi SE 17.3 mph 20.7 mph N/A   Overcast
1:15 AM 55.4 °F - 53.6 °F 94% 30.05 in 7.0 mi SE 15.0 mph - N/A   Overcast
1:35 AM 55.4 °F - 53.6 °F 94% 30.06 in 7.0 mi SE 9.2 mph - 0.01 in   Overcast
1:55 AM 55.4 °F - 53.6 °F 94% 30.06 in 7.0 mi SSE 6.9 mph - N/A   Overcast
2:15 AM 55.4 °F - 53.6 °F 94% 30.06 in 10.0 mi SE 15.0 mph - 0.01 in   Overcast
2:35 AM 55.4 °F - 53.6 °F 94% 30.06 in 7.0 mi SE 12.7 mph - 0.02 in   Overcast
2:55 AM 55.4 °F - 53.6 °F 94% 30.05 in 10.0 mi SE 10.4 mph - N/A   Overcast
3:15 AM 55.4 °F - 53.6 °F 94% 30.05 in 7.0 mi SE 13.8 mph - 0.01 in   Overcast
3:55 AM 55.4 °F - 53.6 °F 94% 30.05 in 5.0 mi SE 13.8 mph - 0.01 in   Overcast
4:15 AM 55.4 °F - 53.6 °F 94% 30.05 in 5.0 mi ESE 10.4 mph - 0.01 in   Overcast
4:35 AM 55.4 °F - 53.6 °F 94% 30.05 in 7.0 mi ESE 10.4 mph 16.1 mph 0.02 in   Overcast
4:55 AM 55.4 °F - 53.6 °F 94% 30.06 in 7.0 mi SE 10.4 mph - N/A   Overcast
5:15 AM 55.4 °F - 53.6 °F 94% 30.07 in 5.0 mi SE 12.7 mph 16.1 mph 0.01 in   Overcast
5:35 AM 55.4 °F - 53.6 °F 94% 30.06 in 7.0 mi SE 11.5 mph - 0.02 in   Overcast
5:55 AM 55.4 °F - 53.6 °F 94% 30.07 in 10.0 mi SE 10.4 mph - N/A   Overcast
6:15 AM 55.4 °F - 53.6 °F 94% 30.08 in 5.0 mi SE 9.2 mph - 0.01 in   Overcast
6:35 AM 55.4 °F - 53.6 °F 94% 30.08 in 7.0 mi SE 10.4 mph - 0.02 in   Overcast
6:55 AM 55.4 °F - 53.6 °F 94% 30.09 in 10.0 mi SE 10.4 mph - N/A   Overcast
7:15 AM 55.4 °F - 53.6 °F 94% 30.11 in 4.0 mi SSE 10.4 mph - 0.01 in   Overcast
7:35 AM 53.6 °F - 53.6 °F 100% 30.11 in 3.0 mi SSE 11.5 mph - 0.01 in   Overcast
8:15 AM 55.4 °F - 53.6 °F 94% 30.12 in 7.0 mi SSE 9.2 mph - 0.01 in   Overcast
8:35 AM 55.4 °F - 53.6 °F 94% 30.13 in 7.0 mi SSE 10.4 mph - 0.02 in   Overcast
9:15 AM 55.4 °F - 53.6 °F 94% 30.14 in 4.0 mi SSE 13.8 mph - 0.01 in   Overcast
9:35 AM 55.4 °F - 53.6 °F 94% 30.14 in 10.0 mi SSE 17.3 mph - 0.02 in   Overcast
9:55 AM 55.4 °F - 53.6 °F 94% 30.15 in 10.0 mi SSE 15.0 mph 19.6 mph N/A   Overcast
10:15 AM 55.4 °F - 53.6 °F 94% 30.16 in 7.0 mi SSE 13.8 mph 20.7 mph 0.01 in   Overcast
10:35 AM 55.4 °F - 53.6 °F 94% 30.16 in 7.0 mi SSE 13.8 mph - 0.02 in   Overcast
10:55 AM 57.2 °F - 53.6 °F 88% 30.16 in 7.0 mi SSE 16.1 mph 19.6 mph N/A   Overcast
11:15 AM 57.2 °F - 53.6 °F 88% 30.16 in 10.0 mi SSE 13.8 mph 19.6 mph 0.01 in   Overcast
11:35 AM 59.0 °F - 53.6 °F 82% 30.16 in 7.0 mi SSE 10.4 mph - 0.02 in   Overcast
11:55 AM 59.0 °F - 53.6 °F 82% 30.15 in 7.0 mi SSE 12.7 mph - N/A   Overcast
12:15 PM 59.0 °F - 53.6 °F 82% 30.15 in 10.0 mi SSE 11.5 mph - 0.01 in   Overcast
12:35 PM 60.8 °F - 53.6 °F 77% 30.14 in 10.0 mi SSE 9.2 mph - 0.02 in   Mostly Cloudy
12:55 PM 60.8 °F - 53.6 °F 77% 30.14 in 10.0 mi SSE 8.1 mph - N/A   Overcast
1:15 PM 60.8 °F - 53.6 °F 77% 30.14 in 10.0 mi SSE 8.1 mph - 0.02 in   Mostly Cloudy
1:55 PM 62.6 °F - 51.8 °F 68% 30.14 in 10.0 mi SSE 5.8 mph - N/A   Scattered Clouds
2:15 PM 62.6 °F - 51.8 °F 68% 30.14 in 10.0 mi SSE 6.9 mph - 0.01 in   Clear
2:35 PM 62.6 °F - 51.8 °F 68% 30.14 in 10.0 mi ESE 5.8 mph - 0.02 in   Mostly Cloudy
2:55 PM 62.6 °F - 51.8 °F 68% 30.13 in 10.0 mi SSE 8.1 mph - N/A   Scattered Clouds
3:15 PM 62.6 °F - 51.8 °F 68% 30.13 in 10.0 mi ESE 6.9 mph - 0.01 in   Clear
3:35 PM 62.6 °F - 51.8 °F 68% 30.13 in 10.0 mi SE 5.8 mph - 0.02 in   Scattered Clouds
3:55 PM 62.6 °F - 51.8 °F 68% 30.14 in 10.0 mi SE 6.9 mph - 0.01 in   Mostly Cloudy
4:15 PM 60.8 °F - 51.8 °F 72% 30.14 in 10.0 mi SSE 6.9 mph - 0.01 in   Mostly Cloudy
4:35 PM 60.8 °F - 51.8 °F 72% 30.14 in 10.0 mi ESE 4.6 mph - 0.02 in   Scattered Clouds
4:55 PM 59.0 °F - 51.8 °F 77% 30.14 in 10.0 mi ESE 4.6 mph - N/A   Scattered Clouds
5:15 PM 59.0 °F - 51.8 °F 77% 30.14 in 10.0 mi ESE 5.8 mph - 0.01 in   Scattered Clouds
5:35 PM 57.2 °F - 50.0 °F 77% 30.14 in 10.0 mi ESE 4.6 mph - 0.03 in   Scattered Clouds
5:55 PM 57.2 °F - 51.8 °F 82% 30.15 in 10.0 mi SE 3.5 mph - N/A   Mostly Cloudy
6:15 PM 55.4 °F - 51.8 °F 88% 30.16 in 10.0 mi ESE 3.5 mph - 0.03 in   Overcast
6:35 PM 55.4 °F - 51.8 °F 88% 30.16 in 10.0 mi East 4.6 mph - 0.05 in   Overcast
6:55 PM 55.4 °F - 51.8 °F 88% 30.16 in 10.0 mi ESE 4.6 mph - 0.01 in   Overcast
7:15 PM 53.6 °F - 50.0 °F 88% 30.16 in 7.0 mi NE 6.9 mph - 0.02 in   Overcast
7:35 PM 51.8 °F - 50.0 °F 94% 30.17 in 10.0 mi ENE 4.6 mph - 0.04 in   Scattered Clouds
7:55 PM 51.8 °F - 50.0 °F 94% 30.17 in 10.0 mi ENE 4.6 mph - N/A   Clear
8:15 PM 51.8 °F - 50.0 °F 94% 30.17 in 10.0 mi NW 3.5 mph - N/A   Clear
8:35 PM 50.0 °F - 48.2 °F 94% 30.18 in 10.0 mi North 3.5 mph - N/A   Clear
8:55 PM 50.0 °F - 48.2 °F 94% 30.18 in 10.0 mi NE 4.6 mph - N/A   Clear
9:15 PM 50.0 °F - 48.2 °F 94% 30.18 in 10.0 mi NE 4.6 mph - 0.01 in   Clear
9:35 PM 48.2 °F - 46.4 °F 93% 30.19 in 10.0 mi NE 4.6 mph - 0.01 in   Clear
9:55 PM 48.2 °F - 46.4 °F 93% 30.19 in 10.0 mi NNE 3.5 mph - N/A   Clear
10:15 PM 46.4 °F 45.2 °F 46.4 °F 100% 30.19 in 10.0 mi NNE 3.5 mph - N/A   Clear
10:35 PM 46.4 °F 43.5 °F 44.6 °F 93% 30.19 in 10.0 mi NE 5.8 mph - N/A   Clear
11:15 PM 44.6 °F - 44.6 °F 100% 30.18 in 5.0 mi Calm Calm - N/A   Clear
11:35 PM 44.6 °F - 42.8 °F 93% 30.18 in 1.0 mi Calm Calm - N/A   Unknown
11:55 PM 44.6 °F - 44.6 °F 100% 30.18 in 0.5 mi Calm Calm - N/A   Unknown